Weather History for KAAA - March, 2014

Change the Weather History Date:

Wednesday, March 12, 2014

  Actual Average (KSPI) Record (KSPI)
Temperature  
Mean Temperature 34 °F 41 °F  
Max Temperature 38 °F 50 °F 80 °F (1990)
Min Temperature 30 °F 31 °F -8 °F (1948)
Degree Days  
Heating Degree Days 31 24  
Month to date heating degree days 319  
Since 1 July heating degree days 4590  
Cooling Degree Days 0 0  
Month to date cooling degree days 0  
Year to date cooling degree days 0  
Moisture  
Dew Point 29 °F    
Average Humidity 84    
Maximum Humidity 97    
Minimum Humidity 69    
Precipitation  
Precipitation 0.43 in 0.08 in 2.18 in (2006)
Month to date precipitation 0.97  
Year to date precipitation 4.60  
Snow  
Snow 0.00 in 0.10 in 3.90 in (1980)
Month to date snowfall 1.4  
Since 1 July snowfall 19.5  
Snow Depth -    
Sea Level Pressure  
Sea Level Pressure 29.92 in    
Wind  
Wind Speed 14 mph (NNW)    
Max Wind Speed 26 mph    
Max Gust Speed 34 mph    
Visibility 8 miles    
Events Rain , Snow , Thunderstorm    
T = Trace of Precipitation, MM = Missing Value Source: NWS Daily Summary

Daily Weather History Graph

Daily Weather History Graph

Search for Another Location

Airport or City:

Trip Planner

Search our weather history database for the weather conditions in past years. The results will help you decide how hot, cold, wet, or windy it might be!

Date:

Astronomy

Mar. 12, 2014 Rise Set
Actual Time 7:13 AM CDT 7:01 PM CDT
Civil Twilight 6:46 AM CDT 7:28 PM CDT
Nautical Twilight 6:15 AM CDT 7:59 PM CDT
Astronomical Twilight 5:43 AM CDT 8:31 PM CDT
Moon 3:31 PM CDT (3/12) 4:45 AM CDT (3/12)
Length of Visible Light 12h 41m
Length of Day
11h 47m
Waxing Gibbous, 85% of the Moon is Illuminated
Mar 12
Waxing Gibbous
Mar 16
Full
Mar 23
Last Quarter
Mar 30
New
Apr 7
First Quarter

Hourly Weather History & Observations

Time (CDT) Temp. Windchill Dew Point Humidity Pressure Visibility Wind Dir Wind Speed Gust Speed Precip Events Conditions
12:15 AM 38.5 °F 27.1 °F 36.5 °F 93% 29.56 in 4.0 mi NNE 26.5 mph 33.4 mph 0.03 in Rain Rain
12:35 AM 38.3 °F 26.8 °F 36.5 °F 93% 29.53 in 7.0 mi NNE 26.5 mph 34.5 mph 0.05 in Rain Light Rain
12:55 AM 38.5 °F 27.8 °F 36.7 °F 93% 29.55 in 10.0 mi NNE 23.0 mph 32.2 mph 0.05 in   Overcast
1:15 AM 38.3 °F 27.8 °F 36.1 °F 92% 29.57 in 7.0 mi North 21.9 mph 31.1 mph 0.01 in Rain , Thunderstorm Rain
1:35 AM 37.9 °F 28.2 °F 36.1 °F 93% 29.64 in 4.0 mi North 18.4 mph 25.3 mph 0.07 in Rain Light Rain
1:55 AM 35.8 °F 24.8 °F 33.8 °F 92% 29.63 in 3.0 mi North 20.7 mph 28.8 mph 0.12 in   Overcast
2:15 AM 34.5 °F 24.1 °F 33.1 °F 94% 29.64 in 3.0 mi North 17.3 mph 23.0 mph N/A Snow Light Snow
2:35 AM 34.2 °F 25.2 °F 33.1 °F 96% 29.68 in 1.8 mi NNW 12.7 mph 20.7 mph N/A Snow Light Snow
2:55 AM 34.0 °F 24.6 °F 33.1 °F 96% 29.68 in 0.8 mi North 13.8 mph 19.6 mph N/A Snow Snow
3:15 AM 34.0 °F 24.2 °F 33.1 °F 96% 29.67 in 1.0 mi North 15.0 mph 20.7 mph 0.01 in Snow Snow
3:35 AM 34.0 °F 24.6 °F 33.3 °F 97% 29.66 in 1.8 mi North 13.8 mph - 0.01 in Snow Light Snow
3:55 AM 34.0 °F 25.0 °F 33.3 °F 97% 29.67 in 1.8 mi North 12.7 mph 19.6 mph 0.01 in Snow Light Snow
4:15 AM 34.2 °F 25.7 °F 33.3 °F 97% 29.68 in 2.5 mi North 11.5 mph 18.4 mph N/A Snow Light Snow
4:35 AM 34.3 °F 24.6 °F 33.4 °F 97% 29.68 in 7.0 mi North 15.0 mph 19.6 mph N/A Snow Light Snow
4:55 AM 34.7 °F 25.5 °F 33.6 °F 96% 29.70 in 7.0 mi NNW 13.8 mph 19.6 mph 0.02 in   Overcast
5:15 AM 34.5 °F 27.3 °F 33.3 °F 95% 29.73 in 3.0 mi NNW 9.2 mph 16.1 mph 0.01 in   Overcast
5:35 AM 34.3 °F 25.9 °F 33.3 °F 96% 29.74 in 5.0 mi NNW 11.5 mph 18.4 mph 0.03 in Snow Light Snow
5:55 AM 34.2 °F 26.8 °F 32.9 °F 95% 29.76 in 4.0 mi NNW 9.2 mph - 0.03 in Snow Light Snow
6:15 AM 34.0 °F 25.5 °F 32.9 °F 96% 29.78 in 2.0 mi NNW 11.5 mph 18.4 mph N/A Snow Light Snow
6:35 AM 33.8 °F 24.8 °F 32.9 °F 96% 29.80 in 1.5 mi North 12.7 mph 21.9 mph N/A Snow Light Snow
6:55 AM 33.8 °F 23.9 °F 32.5 °F 95% 29.80 in 2.0 mi North 15.0 mph 23.0 mph N/A Snow Light Snow
7:15 AM 33.3 °F 22.5 °F 31.8 °F 94% 29.82 in 7.0 mi North 17.3 mph 23.0 mph 0.01 in Snow Light Snow
7:35 AM 33.3 °F 24.1 °F 31.1 °F 92% 29.83 in 10.0 mi North 12.7 mph - 0.01 in   Overcast
7:55 AM 33.4 °F 23.5 °F 30.6 °F 89% 29.84 in 10.0 mi North 15.0 mph 19.6 mph 0.01 in   Overcast
8:15 AM 33.3 °F 25.1 °F 29.8 °F 87% 29.86 in 10.0 mi North 10.4 mph 19.6 mph N/A   Overcast
8:35 AM 33.1 °F 24.4 °F 29.3 °F 86% 29.87 in 10.0 mi North 11.5 mph 17.3 mph N/A   Overcast
8:55 AM 33.1 °F 24.4 °F 28.8 °F 84% 29.89 in 10.0 mi NNW 11.5 mph 19.6 mph N/A   Overcast
9:15 AM 33.8 °F 25.3 °F 28.0 °F 79% 29.90 in 10.0 mi North 11.5 mph 18.4 mph 0.01 in   Overcast
9:35 AM 34.2 °F 26.8 °F 28.4 °F 79% 29.91 in 10.0 mi NNW 9.2 mph - 0.02 in   Overcast
9:55 AM 34.7 °F 28.8 °F 28.6 °F 78% 29.92 in 10.0 mi NNW 6.9 mph - 0.02 in   Overcast
10:15 AM 35.1 °F 29.3 °F 29.3 °F 80% 29.93 in 10.0 mi NNW 6.9 mph - N/A   Overcast
10:35 AM 35.6 °F 29.9 °F 30.0 °F 80% 29.94 in 10.0 mi NNW 6.9 mph - N/A   Overcast
10:55 AM 35.8 °F 28.8 °F 29.7 °F 78% 29.95 in 10.0 mi NNW 9.2 mph - N/A   Overcast
11:15 AM 36.1 °F 28.7 °F 28.8 °F 75% 29.96 in 10.0 mi NNW 10.4 mph - N/A   Overcast
11:35 AM 36.5 °F 29.7 °F 28.9 °F 74% 29.96 in 10.0 mi NNW 9.2 mph - N/A   Overcast
11:55 AM 36.1 °F 29.9 °F 29.3 °F 76% 29.97 in 10.0 mi NW 8.1 mph - N/A   Overcast
12:15 PM 35.6 °F 28.0 °F 30.2 °F 81% 29.98 in 2.5 mi NW 10.4 mph - 0.02 in Snow Light Snow
12:35 PM 34.9 °F 27.7 °F 30.2 °F 83% 29.98 in 4.0 mi NW 9.2 mph - 0.03 in Snow Light Snow
12:55 PM 34.3 °F 27.0 °F 30.4 °F 85% 29.99 in 7.0 mi WNW 9.2 mph 18.4 mph 0.04 in Snow Light Snow
1:15 PM 33.3 °F 25.7 °F 30.2 °F 89% 30.00 in 4.0 mi WNW 9.2 mph 16.1 mph 0.01 in Snow Light Snow
1:35 PM 35.1 °F 29.3 °F 29.5 °F 80% 29.99 in 10.0 mi NW 6.9 mph 17.3 mph 0.02 in   Overcast
1:55 PM 35.6 °F 28.0 °F 29.1 °F 77% 29.99 in 10.0 mi NNW 10.4 mph 16.1 mph 0.03 in   Overcast
2:15 PM 35.1 °F 28.6 °F 28.8 °F 78% 29.99 in 10.0 mi NW 8.1 mph 16.1 mph 0.01 in   Overcast
2:35 PM 35.4 °F 28.4 °F 29.1 °F 78% 29.99 in 10.0 mi NW 9.2 mph - 0.03 in   Overcast
2:55 PM 34.7 °F 26.9 °F 28.4 °F 78% 30.00 in 10.0 mi NW 10.4 mph 16.1 mph 0.03 in   Overcast
3:15 PM 36.3 °F 29.5 °F 28.2 °F 72% 30.00 in 10.0 mi NW 9.2 mph 17.3 mph 0.01 in   Overcast
3:35 PM 36.1 °F 29.9 °F 27.0 °F 69% 30.01 in 10.0 mi NNW 8.1 mph - 0.02 in   Overcast
3:55 PM 36.3 °F 30.8 °F 27.9 °F 71% 30.02 in 10.0 mi NNW 6.9 mph - 0.04 in   Overcast
4:15 PM 35.6 °F 29.9 °F 28.0 °F 74% 30.02 in 10.0 mi NNW 6.9 mph - N/A   Overcast
4:35 PM 34.5 °F 24.8 °F 29.3 °F 81% 30.04 in 5.0 mi North 15.0 mph 23.0 mph 0.01 in   Haze
4:55 PM 34.0 °F 25.5 °F 28.8 °F 81% 30.04 in 10.0 mi North 11.5 mph - 0.02 in   Overcast
5:15 PM 33.8 °F 27.0 °F 28.2 °F 80% 30.05 in 7.0 mi North 8.1 mph - N/A   Overcast
5:35 PM 33.8 °F 25.3 °F 28.0 °F 79% 30.06 in 7.0 mi North 11.5 mph - 0.01 in Snow Light Snow
5:55 PM 32.5 °F 23.7 °F 28.0 °F 83% 30.07 in 2.5 mi North 11.5 mph 17.3 mph 0.01 in Snow Light Snow
6:15 PM 32.2 °F 25.8 °F 27.3 °F 82% 30.08 in 10.0 mi North 6.9 mph - N/A   Mostly Cloudy
6:35 PM 32.2 °F 24.4 °F 26.6 °F 80% 30.10 in 10.0 mi North 9.2 mph - N/A   Overcast
6:55 PM 32.0 °F 24.2 °F 26.1 °F 79% 30.10 in 10.0 mi NNW 9.2 mph - N/A   Overcast
7:15 PM 32.0 °F 24.8 °F 25.0 °F 75% 30.11 in 10.0 mi North 8.1 mph - N/A   Overcast
7:35 PM 32.0 °F 26.4 °F 25.2 °F 76% 30.11 in 10.0 mi NNW 5.8 mph - N/A   Overcast
7:55 PM 32.0 °F 28.7 °F 23.7 °F 71% 30.12 in 10.0 mi NNW 3.5 mph - N/A   Overcast
8:15 PM 32.0 °F 28.7 °F 23.7 °F 71% 30.12 in 10.0 mi NNW 3.5 mph - N/A   Overcast
8:35 PM 32.0 °F 28.7 °F 23.4 °F 70% 30.13 in 10.0 mi NW 3.5 mph - N/A   Overcast
8:55 PM 31.8 °F 27.3 °F 24.3 °F 74% 30.13 in 10.0 mi NW 4.6 mph - N/A   Overcast
9:15 PM 31.6 °F 28.3 °F 23.5 °F 72% 30.13 in 10.0 mi NW 3.5 mph - N/A   Overcast
9:35 PM 31.1 °F 27.7 °F 23.9 °F 75% 30.14 in 10.0 mi NW 3.5 mph - N/A   Overcast
9:55 PM 31.1 °F - 23.9 °F 75% 30.14 in 10.0 mi Calm Calm - N/A   Overcast
10:15 PM 30.7 °F 27.3 °F 23.9 °F 76% 30.14 in 10.0 mi NW 3.5 mph - N/A   Overcast
10:35 PM 30.9 °F 27.5 °F 24.8 °F 78% 30.15 in 10.0 mi NW 3.5 mph - N/A   Overcast
10:55 PM 30.7 °F - 24.8 °F 79% 30.14 in 10.0 mi Calm Calm - N/A Snow Light Snow
11:15 PM 30.0 °F - 25.2 °F 82% 30.14 in 10.0 mi Calm Calm - N/A   Mostly Cloudy
11:35 PM 30.2 °F - 25.7 °F 83% 30.14 in 7.0 mi Calm Calm - N/A Snow Light Snow
11:55 PM 30.2 °F - 25.7 °F 83% 30.14 in 7.0 mi Calm Calm - N/A Snow Light Snow